Theta_e
335 335 334 335 335 335 335 338 338 337 337 336 335 334 335 334 336 336 335 331 331 331
336 336 334 335 338 338 338 337 337 337 336 335 335 334 336 334 335 335 336 335 332 328
335 336 336 336 335 337 336 335 336 335 336 335 334 333 335 335 335 332 334 338 332 330
336 336 334 335 336 336 336 336 335 334 334 334 333 334 334 334 333 333 334 335 332 325
335 335 334 334 335 336 335 335 335 334 333 333 333 334 333 331 332 332 331 330 330 330
334 334 334 334 335 335 335 335 335 334 332 332 333 333 333 332 332 330 332 332 330 331
333 334 334 335 335 334 334 332 334 333 333 332 332 333 332 331 331 329 332 331 333 332
334 334 334 334 334 334 334 332 333 332 333 331 332 331 331 330 331 328 329 330 330 331
333 333 333 333 334 334 333 332 331 331 331 331 329 309 312 324 329 328 328 327 328 330
332 331 333 332 332 334 334 333 329 329 330 330 330 305 307 312 329 327 327 330 329 328
330 330 332 330 331 334 334 333 325 325 329 329 324 304 305 308 329 328 327 328 328 327
330 331 331 329 331 333 334 333 331 329 326 327 324 302 305 318 328 326 324 324 322 321
330 332 331 331 330 333 333 333 332 322 323 316 321 300 304 319 328 323 321 323 322 306
330 333 335 333 332 332 331 333 330 327 326 328 324 318 303 307 326 323 321 323 325 316
Wind_Speed
5 3 2 2 2 3 3 3 5 6 6 6 7 7 7 5 5 4 5 6 4 2
4 2 2 0 2 3 3 4 6 6 6 6 6 7 7 5 4 4 4 6 7 4
4 2 2 2 3 2 3 4 7 7 6 7 7 7 7 5 5 4 5 5 9 7
3 3 4 3 2 4 3 5 7 7 7 8 9 8 6 5 6 7 6 7 8 5
3 2 4 4 4 3 4 5 6 6 7 7 8 7 7 7 5 5 6 5 8 8
4 3 5 4 5 2 5 6 7 7 7 7 8 7 6 5 5 5 5 8 7 6
5 5 5 4 5 5 6 4 6 7 6 7 6 7 6 4 5 4 5 5 6 7
7 5 6 6 6 5 6 6 5 6 7 7 5 4 7 7 7 4 5 5 6 5
7 7 6 5 6 6 8 7 7 7 8 7 4 7 4 7 7 6 5 6 6 7
8 7 6 6 5 8 8 9 7 5 7 6 8 8 6 5 7 6 6 7 7 7
10 9 7 6 5 6 7 9 7 5 6 8 7 6 5 1 7 9 7 7 8 8
10 9 9 7 6 5 7 8 8 8 7 9 9 6 6 6 9 8 9 8 7 7
11 10 10 7 7 5 5 8 9 8 7 10 8 5 5 6 8 8 6 7 10 9
11 10 9 8 6 7 5 7 10 12 9 10 10 8 8 4 10 7 6 5 8 5
Wind_Direction
180 215 253 244 327 197 202 203 185 188 183 181 173 174 189 192 198 162 156 139 171 153
176 233 21 240 241 163 175 160 170 171 160 157 166 175 176 199 174 159 138 171 152 131
154 174 163 179 197 139 136 162 160 157 152 150 155 172 187 174 159 155 166 148 139 150
134 154 167 149 166 131 158 161 162 156 152 153 153 159 166 185 168 177 169 128 149 151
127 144 163 151 123 132 145 129 156 154 145 149 145 148 160 167 160 160 143 115 115 173
126 141 147 142 107 112 127 137 148 157 158 147 135 146 156 154 160 160 154 145 159 167
134 139 135 131 121 126 115 117 131 143 150 129 149 143 142 145 142 155 128 126 154 133
142 143 135 114 106 105 112 104 96 106 125 127 135 140 146 148 135 142 133 129 119 106
167 163 144 137 117 128 119 121 117 135 133 139 146 115 137 146 137 133 143 128 116 109
172 175 158 148 159 124 124 114 102 110 136 136 121 130 140 162 139 145 134 132 117 116
179 169 155 159 130 130 139 131 121 114 123 124 118 128 146 143 126 106 114 107 110 109
179 168 155 155 143 148 148 121 141 135 141 133 130 146 145 133 115 112 96 91 86 98
178 170 162 153 145 145 147 128 120 130 134 127 137 170 159 168 117 108 98 103 102 78
177 172 166 155 150 151 147 110 111 124 142 150 147 162 167 184 122 121 114 129 112 100